"Period start","avg(HW err(1)/warn(2) (#))","avg(Visibility (m))","avg(Weather code (#))","avg(Precip intensity (mm/h))","min(HW err(1)/warn(2) (#))","max(HW err(1)/warn(2) (#))","std(HW err(1)/warn(2) (#))","med(HW err(1)/warn(2) (#))","min(Visibility (m))","max(Visibility (m))","std(Visibility (m))","med(Visibility (m))","min(Weather code (#))","max(Weather code (#))","std(Weather code (#))","med(Weather code (#))","min(Precip intensity (mm/h))","max(Precip intensity (mm/h))","std(Precip intensity (mm/h))","med(Precip intensity (mm/h))"
2014-10-14 00:00:00,2,42938,0,0.00,2,2,0,2,33904,50000,5161,42291,0,0,0,0,0.00,0.00,0.00,0.00
2014-10-14 00:10:00,2,41947,0,0.00,2,2,0,2,29229,50000,8070,43648,0,0,0,0,0.00,0.00,0.00,0.00
2014-10-14 00:20:00,2,39296,0,0.00,2,2,0,2,17705,50000,10432,39200,0,0,0,0,0.00,0.00,0.00,0.00
2014-10-14 00:30:00,2,38354,0,0.00,2,2,0,2,26691,50000,6258,37300,0,0,0,0,0.00,0.00,0.00,0.00
2014-10-14 00:40:00,2,39350,0,0.00,2,2,0,2,29617,50000,5533,39279,0,0,0,0,0.00,0.00,0.00,0.00
2014-10-14 00:50:00,2,38626,0,0.00,2,2,0,2,26321,50000,6928,37707,0,0,0,0,0.00,0.00,0.00,0.00
2014-10-14 01:00:00,2,36413,0,0.00,2,2,0,2,21963,50000,9075,35067,0,0,0,0,0.00,0.00,0.00,0.00
2014-10-14 01:10:00,2,43176,0,0.00,2,2,0,2,36871,50000,4219,42788,0,0,0,0,0.00,0.00,0.00,0.00
2014-10-14 01:20:00,2,36075,0,0.00,2,2,0,2,21798,50000,10327,34588,0,0,0,0,0.00,0.00,0.00,0.00
2014-10-14 01:30:00,2,40430,0,0.00,2,2,0,2,31443,50000,7783,37366,0,0,0,0,0.00,0.00,0.00,0.00
2014-10-14 01:40:00,2,34799,0,0.00,2,2,0,2,24499,43492,5895,34462,0,0,0,0,0.00,0.00,0.00,0.00
2014-10-14 01:50:00,2,40472,0,0.00,2,2,0,2,26861,50000,7607,39372,0,0,0,0,0.00,0.00,0.00,0.00
2014-10-14 02:00:00,2,31720,0,0.00,2,2,0,2,23529,41073,6445,30266,0,0,0,0,0.00,0.00,0.00,0.00
2014-10-14 02:10:00,2,33200,0,0.00,2,2,0,2,24057,45961,6618,32191,0,0,0,0,0.00,0.00,0.00,0.00
2014-10-14 02:20:00,2,40316,0,0.00,2,2,0,2,26546,50000,7071,41292,0,0,0,0,0.00,0.00,0.00,0.00
2014-10-14 02:30:00,2,43100,0,0.00,2,2,0,2,30418,50000,6403,46310,0,0,0,0,0.00,0.00,0.00,0.00
2014-10-14 02:40:00,2,40450,0,0.00,2,2,0,2,31499,47668,4691,40468,0,0,0,0,0.00,0.00,0.00,0.00
2014-10-14 02:50:00,2,44404,0,0.00,2,2,0,2,31557,50000,6519,47191,0,0,0,0,0.00,0.00,0.00,0.00
2014-10-14 03:00:00,2,41092,0,0.00,2,2,0,2,32141,50000,6113,41889,0,0,0,0,0.00,0.00,0.00,0.00
2014-10-14 03:10:00,2,37507,0,0.00,2,2,0,2,29746,48311,6725,35748,0,0,0,0,0.00,0.00,0.00,0.00
2014-10-14 03:20:00,2,41396,0,0.00,2,2,0,2,32034,50000,6198,43044,0,0,0,0,0.00,0.00,0.00,0.00
2014-10-14 03:30:00,2,40042,0,0.00,2,2,0,2,22368,50000,8508,41780,0,0,0,0,0.00,0.00,0.00,0.00
2014-10-14 03:40:00,2,39180,0,0.00,2,2,0,2,32098,50000,6201,37966,0,0,0,0,0.00,0.00,0.00,0.00
2014-10-14 03:50:00,2,47034,0,0.00,2,2,0,2,36364,50000,4320,49950,0,0,0,0,0.00,0.00,0.00,0.00
2014-10-14 04:00:00,2,35645,0,0.00,2,2,0,2,23263,44115,6114,37262,0,0,0,0,0.00,0.00,0.00,0.00
2014-10-14 04:10:00,2,40507,0,0.00,2,2,0,2,27309,50000,6208,40440,0,0,0,0,0.00,0.00,0.00,0.00
2014-10-14 04:20:00,2,44578,0,0.00,2,2,0,2,34557,50000,5495,45634,0,0,0,0,0.00,0.00,0.00,0.00
2014-10-14 04:30:00,2,47820,0,0.00,2,2,0,2,42824,50000,2396,48454,0,0,0,0,0.00,0.00,0.00,0.00
2014-10-14 04:40:00,2,42835,0,0.00,2,2,0,2,29610,50000,6603,44226,0,0,0,0,0.00,0.00,0.00,0.00
2014-10-14 04:50:00,2,46160,0,0.00,2,2,0,2,40544,50000,3343,45787,0,0,0,0,0.00,0.00,0.00,0.00
2014-10-14 05:00:00,2,49018,0,0.00,2,2,0,2,47207,50000,1106,49663,0,0,0,0,0.00,0.00,0.00,0.00
2014-10-14 05:10:00,2,46405,0,0.00,2,2,0,2,37836,50000,4549,48976,0,0,0,0,0.00,0.00,0.00,0.00
2014-10-14 05:20:00,2,47232,0,0.00,2,2,0,2,41594,50000,2774,47488,0,0,0,0,0.00,0.00,0.00,0.00
2014-10-14 05:30:00,2,45004,0,0.00,2,2,0,2,36012,50000,5518,47619,0,0,0,0,0.00,0.00,0.00,0.00
2014-10-14 05:40:00,2,47584,0,0.00,2,2,0,2,43278,50000,2286,48179,0,0,0,0,0.00,0.00,0.00,0.00
2014-10-14 05:50:00,2,44331,0,0.00,2,2,0,2,32119,50000,5889,46316,0,0,0,0,0.00,0.00,0.00,0.00
2014-10-14 06:00:00,2,48970,0,0.00,2,2,0,2,45935,50000,1486,49958,0,0,0,0,0.00,0.00,0.00,0.00
2014-10-14 06:10:00,2,47061,0,0.00,2,2,0,2,42383,50000,2343,47454,0,0,0,0,0.00,0.00,0.00,0.00
2014-10-14 06:20:00,2,43992,0,0.00,2,2,0,2,34458,50000,5464,44931,0,0,0,0,0.00,0.00,0.00,0.00
2014-10-14 06:30:00,2,45546,0,0.00,2,2,0,2,39184,50000,3779,45483,0,0,0,0,0.00,0.00,0.00,0.00
2014-10-14 06:40:00,2,32105,0,0.00,2,2,0,2,20161,47411,8262,29225,0,0,0,0,0.00,0.00,0.00,0.00
2014-10-14 06:50:00,2,16305,0,0.00,2,2,0,2,13192,25803,3613,15027,0,0,0,0,0.00,0.00,0.00,0.00
2014-10-14 07:00:00,2,17180,0,0.00,2,2,0,2,15018,20500,1715,16761,0,0,0,0,0.00,0.00,0.00,0.00
2014-10-14 07:10:00,2,15127,0,0.00,2,2,0,2,13915,16354,833,14879,0,0,0,0,0.00,0.00,0.00,0.00
2014-10-14 07:20:00,2,17810,0,0.00,2,2,0,2,15358,21234,1660,17682,0,0,0,0,0.00,0.00,0.00,0.00
2014-10-14 07:30:00,2,19556,0,0.00,2,2,0,2,17898,20972,863,19559,0,0,0,0,0.00,0.00,0.00,0.00
2014-10-14 07:40:00,2,17682,0,0.00,2,2,0,2,14503,21080,2355,16984,0,0,0,0,0.00,0.00,0.00,0.00
2014-10-14 07:50:00,2,15861,0,0.00,2,2,0,2,14551,17635,1020,15300,0,0,0,0,0.00,0.00,0.00,0.00
2014-10-14 08:00:00,2,20413,0,0.00,2,2,0,2,17814,27442,2600,19626,0,0,0,0,0.00,0.00,0.00,0.00
2014-10-14 08:10:00,2,18427,0,0.00,2,2,0,2,17281,20009,732,18464,0,0,0,0,0.00,0.00,0.00,0.00
2014-10-14 08:20:00,2,21731,0,0.00,2,2,0,2,19799,24096,1394,21354,0,0,0,0,0.00,0.00,0.00,0.00
2014-10-14 08:30:00,2,19145,0,0.00,2,2,0,2,14391,24889,3705,19022,0,0,0,0,0.00,0.00,0.00,0.00
2014-10-14 08:40:00,2,17925,0,0.00,2,2,0,2,15488,22040,2176,17392,0,0,0,0,0.00,0.00,0.00,0.00
2014-10-14 08:50:00,2,17928,0,0.00,2,2,0,2,14947,22423,2346,18128,0,0,0,0,0.00,0.00,0.00,0.00
2014-10-14 09:00:00,2,16785,0,0.00,2,2,0,2,14791,20498,1720,16300,0,0,0,0,0.00,0.00,0.00,0.00
2014-10-14 09:10:00,2,19510,0,0.00,2,2,0,2,16631,23578,2468,18672,0,0,0,0,0.00,0.00,0.00,0.00
2014-10-14 09:20:00,2,18738,0,0.00,2,2,0,2,16389,20967,1557,18550,0,0,0,0,0.00,0.00,0.00,0.00
2014-10-14 09:30:00,2,21161,0,0.00,2,2,0,2,17008,28612,3561,20286,0,0,0,0,0.00,0.00,0.00,0.00
2014-10-14 09:40:00,2,36497,0,0.00,2,2,0,2,26158,42414,5774,38508,0,0,0,0,0.00,0.00,0.00,0.00
2014-10-14 09:50:00,2,31426,0,0.00,2,2,0,2,10700,50000,13068,30422,0,0,0,0,0.00,0.00,0.00,0.00
2014-10-14 10:00:00,2,47765,0,0.00,2,2,0,2,41527,50000,3256,50000,0,0,0,0,0.00,0.00,0.00,0.00
2014-10-14 10:10:00,2,43271,0,0.00,2,2,0,2,36549,48996,3697,43278,0,0,0,0,0.00,0.00,0.00,0.00
2014-10-14 10:20:00,2,48045,0,0.00,2,2,0,2,44793,50000,1936,48232,0,0,0,0,0.00,0.00,0.00,0.00
2014-10-14 10:30:00,2,33929,0,0.00,2,2,0,2,20127,47797,8464,35380,0,0,0,0,0.00,0.00,0.00,0.00
2014-10-14 10:40:00,2,37008,0,0.00,2,2,0,2,26869,50000,8090,38719,0,0,0,0,0.00,0.00,0.00,0.00
2014-10-14 10:50:00,2,49213,0,0.00,2,2,0,2,45637,50000,1585,50000,0,0,0,0,0.00,0.00,0.00,0.00
2014-10-14 11:00:00,2,49968,0,0.00,2,2,0,2,49681,50000,96,50000,0,0,0,0,0.00,0.00,0.00,0.00
2014-10-14 11:10:00,2,48937,0,0.00,2,2,0,2,45601,50000,1322,49308,0,0,0,0,0.00,0.00,0.00,0.00
2014-10-14 11:20:00,2,47582,0,0.00,2,2,0,2,36157,50000,4185,49770,0,0,0,0,0.00,0.00,0.00,0.00
2014-10-14 11:30:00,2,45115,0,0.00,2,2,0,2,40780,50000,3462,44667,0,0,0,0,0.00,0.00,0.00,0.00
2014-10-14 11:40:00,2,49397,0,0.00,2,2,0,2,48060,50000,728,49744,0,0,0,0,0.00,0.00,0.00,0.00
2014-10-14 11:50:00,2,49803,0,0.00,2,2,0,2,48610,50000,433,50000,0,0,0,0,0.00,0.00,0.00,0.00
2014-10-14 12:00:00,2,49788,0,0.00,2,2,0,2,47879,50000,636,50000,0,0,0,0,0.00,0.00,0.00,0.00
2014-10-14 12:10:00,2,48493,0,0.00,2,2,0,2,44737,50000,2006,49664,0,0,0,0,0.00,0.00,0.00,0.00
2014-10-14 12:20:00,2,49240,0,0.00,2,2,0,2,45343,50000,1410,50000,0,0,0,0,0.00,0.00,0.00,0.00
2014-10-14 12:30:00,2,47658,0,0.00,2,2,0,2,39459,50000,3232,49090,0,0,0,0,0.00,0.00,0.00,0.00
2014-10-14 12:40:00,2,45740,0,0.00,2,2,0,2,39984,50000,3092,45412,0,0,0,0,0.00,0.00,0.00,0.00
2014-10-14 12:50:00,2,48979,0,0.00,2,2,0,2,45247,50000,1410,49422,0,0,0,0,0.00,0.00,0.00,0.00
2014-10-14 13:00:00,2,45890,0,0.00,2,2,0,2,41606,50000,2993,46392,0,0,0,0,0.00,0.00,0.00,0.00
2014-10-14 13:10:00,2,44945,0,0.00,2,2,0,2,40711,49182,2610,45182,0,0,0,0,0.00,0.00,0.00,0.00
2014-10-14 13:20:00,2,42312,0,0.00,2,2,0,2,38704,46735,3003,42184,0,0,0,0,0.00,0.00,0.00,0.00
2014-10-14 13:30:00,2,44243,0,0.00,2,2,0,2,38662,49040,3143,43541,0,0,0,0,0.00,0.00,0.00,0.00
2014-10-14 13:40:00,2,43259,0,0.00,2,2,0,2,35404,49752,4115,42906,0,0,0,0,0.00,0.00,0.00,0.00
2014-10-14 13:50:00,2,42390,0,0.00,2,2,0,2,37327,49057,4255,41325,0,0,0,0,0.00,0.00,0.00,0.00
2014-10-14 14:00:00,2,42663,0,0.00,2,2,0,2,37649,50000,3556,41669,0,0,0,0,0.00,0.00,0.00,0.00
2014-10-14 14:10:00,2,47141,0,0.00,2,2,0,2,38997,50000,3411,48116,0,0,0,0,0.00,0.00,0.00,0.00
2014-10-14 14:20:00,2,45548,0,0.00,2,2,0,2,42118,50000,2219,45252,0,0,0,0,0.00,0.00,0.00,0.00
2014-10-14 14:30:00,2,43128,0,0.00,2,2,0,2,37540,49251,4104,43984,0,0,0,0,0.00,0.00,0.00,0.00
2014-10-14 14:40:00,2,46596,0,0.00,2,2,0,2,38917,50000,3500,47192,0,0,0,0,0.00,0.00,0.00,0.00
2014-10-14 14:50:00,2,46983,0,0.00,2,2,0,2,41449,50000,3095,48048,0,0,0,0,0.00,0.00,0.00,0.00
2014-10-14 15:00:00,2,49242,0,0.00,2,2,0,2,46727,50000,1070,49888,0,0,0,0,0.00,0.00,0.00,0.00
2014-10-14 15:10:00,2,49764,0,0.00,2,2,0,2,48826,50000,391,50000,0,0,0,0,0.00,0.00,0.00,0.00
2014-10-14 15:20:00,2,49901,0,0.00,2,2,0,2,49225,50000,234,50000,0,0,0,0,0.00,0.00,0.00,0.00
2014-10-14 15:30:00,2,49784,0,0.00,2,2,0,2,48719,50000,442,50000,0,0,0,0,0.00,0.00,0.00,0.00
2014-10-14 15:40:00,2,50000,0,0.00,2,2,0,2,50000,50000,0,50000,0,0,0,0,0.00,0.00,0.00,0.00
2014-10-14 15:50:00,2,49149,0,0.00,2,2,0,2,44856,50000,1535,50000,0,0,0,0,0.00,0.00,0.00,0.00
2014-10-14 16:00:00,2,50000,0,0.00,2,2,0,2,50000,50000,0,50000,0,0,0,0,0.00,0.00,0.00,0.00
2014-10-14 16:10:00,2,50000,0,0.00,2,2,0,2,50000,50000,0,50000,0,0,0,0,0.00,0.00,0.00,0.00
2014-10-14 16:20:00,2,48989,0,0.00,2,2,0,2,44041,50000,1748,49824,0,0,0,0,0.00,0.00,0.00,0.00
2014-10-14 16:30:00,2,48571,0,0.00,2,2,0,2,40059,50000,2996,50000,0,0,0,0,0.00,0.00,0.00,0.00
2014-10-14 16:40:00,2,48228,0,0.00,2,2,0,2,42741,50000,2437,49248,0,0,0,0,0.00,0.00,0.00,0.00
2014-10-14 16:50:00,2,48668,0,0.00,2,2,0,2,46269,50000,1205,48812,0,0,0,0,0.00,0.00,0.00,0.00
2014-10-14 17:00:00,2,49850,0,0.00,2,2,0,2,48499,50000,450,50000,0,0,0,0,0.00,0.00,0.00,0.00
2014-10-14 17:10:00,2,49624,0,0.00,2,2,0,2,48159,50000,567,49955,0,0,0,0,0.00,0.00,0.00,0.00
2014-10-14 17:20:00,2,48992,0,0.00,2,2,0,2,46657,50000,1065,49044,0,0,0,0,0.00,0.00,0.00,0.00
2014-10-14 17:30:00,2,49896,0,0.00,2,2,0,2,49530,50000,177,50000,0,0,0,0,0.00,0.00,0.00,0.00
2014-10-14 17:40:00,2,47856,0,0.00,2,2,0,2,41372,50000,2976,49714,0,0,0,0,0.00,0.00,0.00,0.00
2014-10-14 17:50:00,2,49838,0,0.00,2,2,0,2,48814,50000,365,50000,0,0,0,0,0.00,0.00,0.00,0.00
2014-10-14 18:00:00,2,49046,0,0.00,2,2,0,2,45373,50000,1531,50000,0,0,0,0,0.00,0.00,0.00,0.00
2014-10-14 18:10:00,2,49242,0,0.00,2,2,0,2,45189,50000,1461,50000,0,0,0,0,0.00,0.00,0.00,0.00
2014-10-14 18:20:00,2,48966,0,0.00,2,2,0,2,45523,50000,1462,50000,0,0,0,0,0.00,0.00,0.00,0.00
2014-10-14 18:30:00,2,48664,0,0.00,2,2,0,2,42626,50000,2214,50000,0,0,0,0,0.00,0.00,0.00,0.00
2014-10-14 18:40:00,2,49093,0,0.00,2,2,0,2,43509,50000,1894,49884,0,0,0,0,0.00,0.00,0.00,0.00
2014-10-14 18:50:00,2,48911,0,0.00,2,2,0,2,41410,50000,2522,49942,0,0,0,0,0.00,0.00,0.00,0.00
2014-10-14 19:00:00,2,49598,0,0.00,2,2,0,2,48601,50000,514,50000,0,0,0,0,0.00,0.00,0.00,0.00
2014-10-14 19:10:00,2,49385,0,0.00,2,2,0,2,47587,50000,926,50000,0,0,0,0,0.00,0.00,0.00,0.00
2014-10-14 19:20:00,2,49523,0,0.00,2,2,0,2,48266,50000,610,49834,0,0,0,0,0.00,0.00,0.00,0.00
2014-10-14 19:30:00,2,49556,0,0.00,2,2,0,2,47554,50000,788,50000,0,0,0,0,0.00,0.00,0.00,0.00
2014-10-14 19:40:00,2,50000,0,0.00,2,2,0,2,50000,50000,0,50000,0,0,0,0,0.00,0.00,0.00,0.00
2014-10-14 19:50:00,2,49968,0,0.00,2,2,0,2,49683,50000,95,50000,0,0,0,0,0.00,0.00,0.00,0.00
2014-10-14 20:00:00,2,50000,0,0.00,2,2,0,2,50000,50000,0,50000,0,0,0,0,0.00,0.00,0.00,0.00
2014-10-14 20:10:00,2,49228,0,0.00,2,2,0,2,45063,50000,1458,50000,0,0,0,0,0.00,0.00,0.00,0.00
2014-10-14 20:20:00,2,48061,0,0.00,2,2,0,2,43964,50000,2146,48884,0,0,0,0,0.00,0.00,0.00,0.00
2014-10-14 20:30:00,2,41395,0,0.00,2,2,0,2,34900,48532,4605,40683,0,0,0,0,0.00,0.00,0.00,0.00
2014-10-14 20:40:00,2,41456,0,0.00,2,2,0,2,37061,45728,2737,42240,0,0,0,0,0.00,0.00,0.00,0.00
2014-10-14 20:50:00,2,39714,0,0.00,2,2,0,2,32144,49210,6378,37802,0,0,0,0,0.00,0.00,0.00,0.00
2014-10-14 21:00:00,2,34223,0,0.00,2,2,0,2,27176,42384,4840,33180,0,0,0,0,0.00,0.00,0.00,0.00
2014-10-14 21:10:00,2,31021,0,0.00,2,2,0,2,27235,36321,2644,30550,0,0,0,0,0.00,0.00,0.00,0.00
2014-10-14 21:20:00,2,31547,0,0.00,2,2,0,2,26255,36892,3800,30634,0,0,0,0,0.00,0.00,0.00,0.00
2014-10-14 21:30:00,2,30185,0,0.00,2,2,0,2,26042,37612,3647,29586,0,0,0,0,0.00,0.00,0.00,0.00
2014-10-14 21:40:00,2,29233,0,0.00,2,2,0,2,25795,33480,2091,29228,0,0,0,0,0.00,0.00,0.00,0.00
2014-10-14 21:50:00,2,33756,0,0.00,2,2,0,2,27646,40577,3725,33826,0,0,0,0,0.00,0.00,0.00,0.00
2014-10-14 22:00:00,2,30847,0,0.00,2,2,0,2,28654,34631,1767,30860,0,0,0,0,0.00,0.00,0.00,0.00
2014-10-14 22:10:00,2,33750,0,0.00,2,2,0,2,28122,38523,3597,33966,0,0,0,0,0.00,0.00,0.00,0.00
2014-10-14 22:20:00,2,29906,0,0.00,2,2,0,2,25100,33877,3030,29860,0,0,0,0,0.00,0.00,0.00,0.00
2014-10-14 22:30:00,2,32902,0,0.00,2,2,0,2,26660,42122,4652,31594,0,0,0,0,0.00,0.00,0.00,0.00
2014-10-14 22:40:00,2,39730,0,0.00,2,2,0,2,31048,47183,4963,40212,0,0,0,0,0.00,0.00,0.00,0.00
2014-10-14 22:50:00,2,39625,0,0.00,2,2,0,2,30872,48793,5475,40004,0,0,0,0,0.00,0.00,0.00,0.00
2014-10-14 23:00:00,2,34422,0,0.00,2,2,0,2,29172,42533,3558,34682,0,0,0,0,0.00,0.00,0.00,0.00
2014-10-14 23:10:00,2,31824,0,0.00,2,2,0,2,28836,35929,2300,31890,0,0,0,0,0.00,0.00,0.00,0.00
2014-10-14 23:20:00,2,33966,0,0.00,2,2,0,2,30701,37560,2384,34392,0,0,0,0,0.00,0.00,0.00,0.00
2014-10-14 23:30:00,2,30061,0,0.00,2,2,0,2,23784,32406,2267,30389,0,0,0,0,0.00,0.00,0.00,0.00
2014-10-14 23:40:00,2,28847,0,0.00,2,2,0,2,25584,33336,2316,29338,0,0,0,0,0.00,0.00,0.00,0.00
2014-10-14 23:50:00,2,32128,0,0.00,2,2,0,2,25584,39432,4827,33537,0,0,0,0,0.00,0.00,0.00,0.00
